[Iaude] MPEC C19: 2024 BE5 [a=1.37,e=0.29,i=14.7,H=25.5]
    mpec at marsden.cfa.harvard.edu 
    mpec at marsden.cfa.harvard.edu
       
    Thu Feb  1 17:18:04 EST 2024
    
    
  
M.P.E.C. 2024-C19                              Issued 2024 February 1, 22:16 UT
     The Minor Planet Electronic Circulars contain information on unusual
         minor planets, routine data on comets and natural satellites,
         and occasional editorial announcements.  They are published
    on behalf of Division F of the International Astronomical Union by the
          Minor Planet Center, Smithsonian Astrophysical Observatory,
                          Cambridge, MA 02138, U.S.A.
			  
             Prepared using the Tamkin Foundation Computer Network
                              MPC at CFA.HARVARD.EDU
            URL https://www.minorplanetcenter.net/    ISSN 1523-6714
                                    2024 BE5                                    
Observations:
     K24B05E* C2024 01 31.47272108 01 22.759+20 46 10.33         20.06wXEC019F52
     K24B05E  C2024 01 31.48511808 01 24.938+20 49 54.03         19.93wXEC019F52
     K24B05E  C2024 01 31.50993208 01 29.409+20 57 22.06         19.89wXEC019F52
     K24B05E  C2024 01 31.58365208 01 43.914+21 19 33.79         19.48GVEC019F52
     K24B05E  C2024 01 31.58429708 01 44.052+21 19 46.30         19.27GVEC019F52
     K24B05E KB2024 01 31.72595 08 02 36.77 +22 02 31.9          19.6 GXEC019M45
     K24B05E KB2024 01 31.73447 08 02 38.73 +22 05 13.8                XEC019M45
     K24B05E KB2024 01 31.82268 08 02 59.69 +22 32 54.4          19.8 VZEC019185
     K24B05E KB2024 01 31.84027 08 03 03.61 +22 38 35.0          19.8 VZEC019185
     K24B05E KB2024 01 31.85797 08 03 07.42 +22 44 13.4          19.4 VZEC019185
     K24B05E IC2024 01 31.86222408 03 07.65 +22 45 41.8                XEC019595
     K24B05E KC2024 01 31.86914008 03 09.13 +22 47 53.9          19.2 GXEC019595
     K24B05E KC2024 01 31.87604908 03 10.59 +22 50 06.3          19.3 GXEC019595
     K24B05E KB2024 01 31.90406 08 03 16.31 +22 59 02.4          19.0 RZEC019106
     K24B05E KB2024 01 31.90714 08 03 16.91 +23 00 01.2                ZEC019106
     K24B05E KB2024 01 31.91022 08 03 17.54 +23 01 00.2          19.6 RZEC019106
     K24B05E KB2024 01 31.91345 08 03 18.24 +23 02 01.7          19.7 RZEC019106
     K24B05E KB2024 01 31.95482108 03 29.05 +23 15 20.4          19.8 GXEC019958
     K24B05E KB2024 01 31.96196708 03 30.62 +23 17 37.3          19.2 GXEC019958
     K24B05E KB2024 01 31.96909208 03 32.08 +23 19 54.4          19.3 GXEC019958
     K24B05E KB2024 02 01.03408 08 03 44.39 +23 40 36.1                VEC019204
     K24B05E KB2024 02 01.04309 08 03 46.37 +23 43 29.0          19.7 GVEC019204
     K24B05E KB2024 02 01.05201 08 03 48.38 +23 46 19.6                VEC019204
     K24B05E KC2024 02 01.18710508 04 32.15 +24 30 46.2          20.0 GVEC019H21
     K24B05E KC2024 02 01.18990308 04 32.79 +24 31 41.5          20.0 GVEC019H21
     K24B05E KC2024 02 01.19270108 04 33.37 +24 32 36.8          19.9 GVEC019H21
     K24B05E KC2024 02 01.19549908 04 33.99 +24 33 31.9          19.9 GVEC019H21
     K24B05E KB2024 02 01.82543 08 07 43.788+28 06 17.32         19.7 GXEC019K74
     K24B05E KB2024 02 01.84157 08 07 48.238+28 11 59.46         19.9 GXEC019K74
     K24B05E 1C2024 02 01.85861 08 07 52.50 +28 17 56.8          21.3 VXEC019033
     K24B05E 1C2024 02 01.85913 08 07 52.64 +28 18 08.2          20.8 VXEC019033
     K24B05E 1C2024 02 01.85965 08 07 52.79 +28 18 19.2          20.9 VXEC019033
     K24B05E KC2024 02 01.86472108 07 54.84 +28 20 26.1          19.4 GVEC019104
     K24B05E KC2024 02 01.87051908 07 56.36 +28 22 29.1                VEC019104
     K24B05E KB2024 02 01.87402708 07 57.217+28 23 22.90         19.8 GXEC019B72
     K24B05E KC2024 02 01.87631508 07 57.86 +28 24 32.2          18.9 GVEC019104
     K24B05E KB2024 02 01.87816708 07 58.289+28 24 50.79         19.6 GXEC019B72
Observer details:
033 Karl Schwarzschild Observatory, Tautenburg.  Observers S. Melnikov, C.
    Hogner, F. Ludwig, M. Hartmann, B. Stecklum.  Measurer B. Stecklum.
    1.34-m f/3 Schmidt + CCD.
104 San Marcello Pistoiese.  Observers P. Bacci, M. Maestripieri.  Measurers
    P. Bacci, L. Tesi, G. Fagioli.  0.60-m F4 Reflector + CCD.
106 Crni Vrh.  Observer H. Mikuz.  0.60-m f/3.3 reflector + CMO.
185 Observatoire Astronomique Jurassien-Vicques.  Observer D. Lachat.  0.61-m
    f/3.2 reflector + CMO.
204 Schiaparelli Observatory.  Observer L. Buzzi.  0.84-m f/3.5 reflector +
    CMO.
595 Farra d'Isonzo.  Observer E. Pettarin.  0.61-m f/4.5 reflector + CCD.
958 Observatoire de Dax.  Observer P. Dupouy.  0.50-m f/4.5 Reflector + CMO.
B72 Soerth Observatory.  Observer B. Koch.  0.36-m f/7.6 reflector + CMO.
F52 Pan-STARRS 2, Haleakala.  Observers J. Herman, T. Lowe, P. Minguez, A.
    Schultz, I. Smith.  Measurers K. Chambers, T. de Boer, J. Fairlamb, H.
    Gao, M. Huber, C.-C. Lin, E. Magnier, Y. Ramanjooloo, R. Wainscoat, R.
    Weryk.  1.8-m Ritchey-Chretien + CCD.
H21 Astronomical Research Observatory, Westfield.  Observer R. Holmes.
    Measurers T. Linder, R. Holmes, L. Horn.  0.76-m f/3.0 astrograph + CCD.
K74 Muensterschwarzach Observatory, Schwarzach.  Observer C. Gerhard.  0.30-m
    f/3.75 reflector + CMO.
M45 Starhopper Observatory, Sfantu Gheorghe.  Observer F. Ursache.  0.41-m
    f/7.5 reflector + CMO.
Orbital elements:
2024 BE5                                                 Earth MOID = 0.0419 AU
Epoch 2023 Sept. 13.0 TT = JDT 2460200.5                MPC                     
M 250.36944              (2000.0)            P               Q                  
n   0.61154074     Peri.   43.42056     -0.97640541     -0.09525349             
a   1.3746299      Node   130.06965     +0.04800994     -0.97075057             
e   0.2924267      Incl.   14.66987     +0.21054104     -0.22038624             
P   1.61           H   25.57          G   0.15           U   8                  
Residuals in seconds of arc
240131 F52  0.0   0.1+    240131 106  0.4+  0.2+    240201 H21  0.2+  0.0
240131 F52  0.0   0.0     240131 106  0.1-  0.1+    240201 K74  0.0   0.9+
240131 F52  0.0   0.0     240131 106  0.2-  0.1+    240201 K74  0.6+  0.8+
240131 F52  0.0   0.4-    240131 106  0.2+  0.2-    240201 033  0.0   0.6-
240131 F52  0.1+  0.5+    240131 958  0.9-  0.0     240201 033  0.0   0.2-
240131 M45  0.0   0.6-    240131 958  0.4+  0.5-    240201 033  0.2+  0.3-
240131 M45  0.4+  0.2-    240131 958  0.3+  0.5-    240201 104  0.0   0.0
240131 185 (1.0-  4.5-)   240201 204  0.3-  0.4+    240201 104  0.1-  0.0
240131 185  0.0   0.3-    240201 204  0.3-  0.3+    240201 B72  0.1+  0.4-
240131 185  0.1-  0.6-    240201 204  0.1+  0.4-    240201 104  0.3-  0.1+
240131 595  0.2-  0.2+    240201 H21  0.3-  0.0     240201 B72  0.5-  0.3-
240131 595  0.2+  0.0     240201 H21  0.2+  0.0
240131 595  0.5+  0.2+    240201 H21  0.1-  0.1+
Ephemeris:
2024 BE5                 a,e,i = 1.37, 0.29, 15                  q = 0.9727
Date    TT    R. A. (2000) Decl.     Delta      r    Elong.  Phase     V
2024 01 02    07 33 55.8 -18 16 06   0.2114  1.1473   137.1    35.7    24.0
...
2024 01 17    07 38 54.9 -12 43 16   0.1215  1.0868   146.2    30.3    22.5
...
2024 01 25    07 45 53.2 -01 33 34   0.07930 1.0578   157.0    21.3    21.2
...
2024 01 31    07 59 39.0 +18 26 40   0.05423 1.0382   167.8    11.5    20.0
2024 02 01    08 03 39.6 +23 30 34   0.05118 1.0351   166.5    12.8    19.9
2024 02 02    08 08 33.3 +29 08 47   0.04863 1.0320   163.3    15.9    19.9
...
2024 02 08    09 31 27.7 +68 09 16   0.04670 1.0152   127.2    50.7    20.8
...
2024 02 16    17 29 42.5 +71 40 09   0.07289 0.9966    94.9    80.9    22.7
...
2024 03 02    18 45 26.2 +53 21 13   0.1418  0.9755    79.6    92.2    24.5
A. U. Tomatic                (C) Copyright 2024 MPC           M.P.E.C. 2024-C19
    
    
More information about the Iaude
mailing list